Weather History for KGUY - September, 2013

Change the Weather History Date:

Sunday, September 8, 2013

  Actual Average Record
Temperature  
Mean Temperature 81 °F 74 °F  
Max Temperature 97 °F 88 °F 97 °F (2000)
Min Temperature 64 °F 59 °F 46 °F (2001)
Degree Days  
Heating Degree Days 0 0  
Month to date heating degree days 0 0  
Since 1 July heating degree days 0 1  
Cooling Degree Days 16 9  
Month to date cooling degree days 121 80  
Year to date cooling degree days 1672 1329  
Growing Degree Days 30 (Base 50)    
Moisture  
Dew Point 54 °F    
Average Humidity 48    
Maximum Humidity 73    
Minimum Humidity 22    
Precipitation  
Precipitation 0.00 in 0.07 in 0.16 in (2003)
Month to date precipitation T 0.50  
Year to date precipitation 10.55 15.27  
Snow  
Snow 0.00 in - - ()
Month to date snowfall 0.0  
Since 1 July snowfall 0.0  
Since 1 September snowfall 0.0  
Snow Depth 0.00 in    
Sea Level Pressure  
Sea Level Pressure 29.82 in    
Wind  
Wind Speed 9 mph (South)    
Max Wind Speed 20 mph    
Max Gust Speed 24 mph    
Visibility 10 miles    
Events      
T = Trace of Precipitation, MM = Missing Value Source: NWS Daily Summary

Daily Weather History Graph

Daily Weather History Graph

Search for Another Location

Airport or City:

Trip Planner

Search our weather history database for the weather conditions in past years. The results will help you decide how hot, cold, wet, or windy it might be!

Date:

Astronomy

Sep. 08, 2013 Rise Set
Actual Time 7:22 AM CDT 8:03 PM CDT
Civil Twilight 6:56 AM CDT 8:29 PM CDT
Nautical Twilight 6:25 AM CDT 9:00 PM CDT
Astronomical Twilight 5:54 AM CDT 9:31 PM CDT
Moon 10:35 AM CDT (9/8) 9:47 PM CDT (9/8)
Length of Visible Light 13h 32m
Length of Day
12h 40m
Waxing Crescent, 11% of the Moon is Illuminated
Sep 8
Waxing Crescent
Sep 12
First Quarter
Sep 19
Full
Sep 26
Last Quarter
Oct 4
New

Hourly Weather History & Observations

Time (CDT) Temp. Heat Index Dew Point Humidity Pressure Visibility Wind Dir Wind Speed Gust Speed Precip Events Conditions
12:53 AM 73.0 °F - 54.0 °F 51% 29.87 in 10.0 mi South 5.8 mph - N/A   Clear
1:53 AM 73.0 °F - 55.0 °F 53% 29.86 in 10.0 mi SSW 8.1 mph - N/A   Clear
2:53 AM 71.1 °F - 55.0 °F 57% 29.87 in 10.0 mi SW 5.8 mph - N/A   Clear
3:53 AM 69.1 °F - 55.9 °F 63% 29.87 in 10.0 mi Calm Calm - N/A   Clear
4:53 AM 68.0 °F - 55.9 °F 65% 29.86 in 10.0 mi Calm Calm - N/A   Clear
5:53 AM 66.0 °F - 55.9 °F 70% 29.86 in 10.0 mi SSW 3.5 mph - N/A   Clear
6:53 AM 64.9 °F - 55.9 °F 73% 29.88 in 10.0 mi South 4.6 mph - N/A   Clear
7:53 AM 66.0 °F - 55.9 °F 70% 29.88 in 10.0 mi South 4.6 mph - N/A   Clear
8:53 AM 75.0 °F - 57.0 °F 53% 29.88 in 10.0 mi SSW 3.5 mph - N/A   Clear
9:53 AM 84.0 °F 83.3 °F 57.0 °F 40% 29.86 in 10.0 mi SSW 12.7 mph - N/A   Clear
10:53 AM 88.0 °F 86.5 °F 55.9 °F 34% 29.85 in 10.0 mi SW 13.8 mph - N/A   Clear
11:53 AM 93.0 °F 91.4 °F 55.9 °F 29% 29.83 in 10.0 mi SW 8.1 mph 16.1 mph N/A   Clear
12:53 PM 93.9 °F 91.4 °F 53.1 °F 25% 29.82 in 10.0 mi SSE 11.5 mph 19.6 mph N/A   Partly Cloudy
1:53 PM 96.1 °F - 52.0 °F 22% 29.81 in 10.0 mi South 13.8 mph 18.4 mph N/A   Partly Cloudy
2:53 PM 93.9 °F - 52.0 °F 24% 29.80 in 10.0 mi SSW 11.5 mph 20.7 mph N/A   Clear
3:53 PM 95.0 °F - 51.1 °F 22% 29.78 in 10.0 mi SSE 9.2 mph - N/A   Mostly Cloudy
4:53 PM 96.1 °F - 51.1 °F 22% 29.75 in 10.0 mi South 12.7 mph 20.7 mph N/A   Partly Cloudy
5:53 PM 93.9 °F - 51.1 °F 23% 29.75 in 10.0 mi South 15.0 mph 20.7 mph N/A   Clear
6:53 PM 93.0 °F - 52.0 °F 25% 29.74 in 10.0 mi South 11.5 mph - N/A   Clear
7:53 PM 89.1 °F - 51.1 °F 27% 29.75 in 10.0 mi South 10.4 mph - N/A   Clear
8:53 PM 84.9 °F - 52.0 °F 32% 29.76 in 10.0 mi South 11.5 mph - N/A   Clear
9:53 PM 82.0 °F 81.2 °F 53.1 °F 37% 29.78 in 10.0 mi SSE 10.4 mph - N/A   Clear
10:53 PM 80.1 °F - 52.0 °F 38% 29.80 in 10.0 mi South 9.2 mph - N/A   Clear
11:53 PM 78.1 °F - 52.0 °F 40% 29.80 in 10.0 mi South 11.5 mph - N/A   Clear